User: anonymous   Login
Location: Theydon Bois
(51.6750°N, 0.1050°E)
Time: 22:33:48
(UTC+01:00)
Language:

NOSS 2-1 (D) - Orbit

View from above orbital plane
View from above orbital plane
View from above satellite
View from above satellite

Ground track
Ground track

The orbit data is extracted from the following two-line orbital elements,

1 20692U 90050D   18198.91425291 0.00000000  00000-0  00000-0 0    06
2 20692  63.3370 247.5999 0822581  36.7647 323.2353 13.41809342    03
Epoch (UTC): 17 July 2018 21:56:31
Eccentricity: 0.0822581
inclination: 63.3370°
perigee height: 487 km
apogee height: 1718 km
right ascension of ascending node: 247.5999°
argument of perigee: 36.7647°
revolutions per day: 13.41809342
mean anomaly at epoch: 323.2353°
orbit number at epoch: 0

The dashed part of the orbit path shows where the satellite is in the earth's shadow,  

DLR